| time (UTC) | temp C | wind direction | speed KPH | gust KPH | rain 1hr cm | rain 24hr cm | rain mn cm | humidity % | barometer mb |
| 20260507073450 | 13 | 57 | 1.6 | 8.0 | 0.00 | 0.00 | 0.00 | 58 | 1016.3 |
| 20260507072945 | 13 | 124 | 1.6 | 4.8 | 0.00 | 0.00 | 0.00 | 55 | 1016.2 |
| 20260507072707 | 13 | 120 | 0.0 | 8.0 | 0.00 | 0.00 | 0.00 | 54 | 1016.2 |
| 20260507071934 | 13 | 44 | 0.0 | 4.8 | 0.00 | 0.00 | 0.00 | 52 | 1016.1 |
| 20260507071428 | 12 | 119 | 0.0 | 4.8 | 0.00 | 0.00 | 0.00 | 51 | 1016.1 |
| 20260507070921 | 12 | 359 | 0.0 | 4.8 | 0.00 | 0.00 | 0.00 | 48 | 1016.1 |
| 20260507070419 | 12 | 136 | 0.0 | 4.8 | 0.00 | 0.00 | 0.00 | 45 | 1016.1 |
| 20260507065917 | 12 | 127 | 0.0 | 3.2 | 0.00 | 0.00 | 0.00 | 39 | 1016.1 |
| 20260507065414 | 12 | 231 | 0.0 | 3.2 | 0.00 | 0.00 | 0.00 | 29 | 1016.1 |
| 20260507064916 | 12 | 240 | 0.0 | 3.2 | 0.00 | 0.00 | 0.00 | 27 | 1016.1 |
| 20260507064414 | 11 | 117 | 0.0 | 3.2 | 0.00 | 0.00 | 0.00 | 17 | 1016.1 |
| 20260507063914 | 11 | 87 | 0.0 | 3.2 | 0.00 | 0.00 | 0.00 | 3 | 1016.1 |
| 20260507063415 | 11 | 202 | 0.0 | 1.6 | 0.00 | 0.00 | 0.00 | 1 | 1016.1 |
| 20260507062917 | 10 | 96 | 0.0 | 1.6 | 0.00 | 0.00 | 0.00 | 1 | 1016.1 |
| 20260507062415 | 10 | 72 | 0.0 | 1.6 | 0.00 | 0.00 | 0.00 | 1 | 1016.0 |
| 20260507061920 | 10 | 58 | 0.0 | 0.0 | 0.00 | 0.00 | 0.00 | 1 | 1015.9 |
| 20260507061913 | 10 | 56 | 0.0 | 0.0 | 0.00 | 0.00 | 0.00 | 1 | 1015.9 |
| 20260507060915 | 10 | 56 | 0.0 | 0.0 | 0.00 | 0.00 | 0.00 | 1 | 1015.9 |
| 20260507060414 | 9 | 56 | 0.0 | 0.0 | 0.00 | 0.00 | 0.00 | 1 | 1015.8 |
| 20260507055915 | 9 | 56 | 0.0 | 0.0 | 0.00 | 0.00 | 0.00 | 1 | 1015.8 |
| 20260507055417 | 8 | 56 | 0.0 | 0.0 | 0.00 | 0.00 | 0.00 | 1 | 1015.7 |
| 20260507054918 | 8 | 56 | 0.0 | 0.0 | 0.00 | 0.00 | 0.00 | 1 | 1015.7 |
| 20260507054635 | 7 | 56 | 0.0 | 0.0 | 0.00 | 0.00 | 0.00 | 1 | 1015.8 |
| 20260507053911 | 7 | 56 | 0.0 | 0.0 | 0.00 | 0.00 | 0.00 | 1 | 1015.7 |
| 20260507053410 | 7 | 56 | 0.0 | 0.0 | 0.00 | 0.00 | 0.00 | 1 | 1015.7 |
| 20260507052911 | 7 | 56 | 0.0 | 0.0 | 0.00 | 0.00 | 0.00 | 1 | 1015.7 |
| 20260507052410 | 6 | 56 | 0.0 | 0.0 | 0.00 | 0.00 | 0.00 | 1 | 1015.6 |
| 20260507052131 | 6 | 56 | 0.0 | 0.0 | 0.00 | 0.00 | 0.00 | 1 | 1015.5 |
| 20260507051631 | 6 | 56 | 0.0 | 0.0 | 0.00 | 0.00 | 0.00 | 1 | 1015.5 |
| 20260507050906 | 6 | 56 | 0.0 | 0.0 | 0.00 | 0.00 | 0.00 | 1 | 1015.5 |
| 20260507050404 | 6 | 56 | 0.0 | 0.0 | 0.00 | 0.00 | 0.00 | 1 | 1015.4 |
| 20260507045905 | 6 | 56 | 0.0 | 0.0 | 0.00 | 0.00 | 0.00 | 1 | 1015.4 |
| 20260507045404 | 6 | 56 | 0.0 | 0.0 | 0.00 | 0.00 | 0.00 | 1 | 1015.3 |
| 20260507044904 | 6 | 56 | 0.0 | 0.0 | 0.00 | 0.00 | 0.00 | 1 | 1015.3 |
| 20260507044406 | 6 | 56 | 0.0 | 0.0 | 0.00 | 0.00 | 0.00 | 1 | 1015.2 |
| 20260507043906 | 6 | 56 | 0.0 | 0.0 | 0.00 | 0.00 | 0.00 | 1 | 1015.1 |
| 20260507043405 | 6 | 56 | 0.0 | 0.0 | 0.00 | 0.00 | 0.00 | 1 | 1015.1 |
| 20260507042905 | 6 | 56 | 0.0 | 0.0 | 0.00 | 0.00 | 0.00 | 1 | 1015.1 |
| 20260507042404 | 6 | 56 | 0.0 | 0.0 | 0.00 | 0.00 | 0.00 | 1 | 1015.1 |
| 20260507041908 | 6 | 56 | 0.0 | 0.0 | 0.00 | 0.00 | 0.00 | 1 | 1015.0 |
| 20260507041404 | 6 | 56 | 0.0 | 0.0 | 0.00 | 0.00 | 0.00 | 1 | 1015.0 |
| 20260507040906 | 6 | 56 | 0.0 | 0.0 | 0.00 | 0.00 | 0.00 | 1 | 1015.0 |
| 20260507040624 | 6 | 56 | 0.0 | 0.0 | 0.00 | 0.00 | 0.00 | 1 | 1015.0 |
| 20260507040122 | 6 | 56 | 0.0 | 0.0 | 0.00 | 0.00 | 0.00 | 1 | 1015.0 |
| 20260507035628 | 6 | 56 | 0.0 | 0.0 | 0.00 | 0.00 | 0.00 | 1 | 1015.0 |
| 20260507034904 | 6 | 56 | 0.0 | 0.0 | 0.00 | 0.00 | 0.00 | 1 | 1015.0 |
| 20260507034401 | 6 | 56 | 0.0 | 0.0 | 0.00 | 0.00 | 0.00 | 1 | 1014.9 |
| 20260507033900 | 6 | 56 | 0.0 | 0.0 | 0.00 | 0.00 | 0.00 | 1 | 1014.9 |
| 20260507033400 | 6 | 56 | 0.0 | 0.0 | 0.00 | 0.00 | 0.00 | 1 | 1014.9 |
| 20260507032901 | 6 | 56 | 0.0 | 0.0 | 0.00 | 0.00 | 0.00 | 1 | 1014.8 |
| 20260507032402 | 6 | 56 | 0.0 | 0.0 | 0.00 | 0.00 | 0.00 | 1 | 1014.7 |
| 20260507031856 | 6 | 56 | 0.0 | 0.0 | 0.00 | 0.00 | 0.00 | 1 | 1014.7 |
| 20260507031351 | 6 | 56 | 0.0 | 0.0 | 0.00 | 0.00 | 0.00 | 1 | 1014.8 |
| 20260507030844 | 6 | 56 | 0.0 | 0.0 | 0.00 | 0.00 | 0.00 | 1 | 1014.7 |
| 20260507030338 | 6 | 56 | 0.0 | 0.0 | 0.00 | 0.00 | 0.00 | 1 | 1014.7 |
| 20260507025831 | 6 | 56 | 0.0 | 0.0 | 0.00 | 0.00 | 0.00 | 1 | 1014.7 |
| 20260507025550 | 6 | 56 | 0.0 | 0.0 | 0.00 | 0.00 | 0.00 | 1 | 1014.7 |
| 20260507024819 | 6 | 56 | 0.0 | 0.0 | 0.00 | 0.00 | 0.00 | 1 | 1014.7 |
| 20260507024315 | 6 | 56 | 0.0 | 0.0 | 0.00 | 0.00 | 0.00 | 1 | 1014.7 |
| 20260507023810 | 6 | 56 | 0.0 | 0.0 | 0.00 | 0.00 | 0.00 | 1 | 1014.6 |
| 20260507023302 | 6 | 56 | 0.0 | 0.0 | 0.00 | 0.00 | 0.00 | 1 | 1014.6 |
| 20260507022757 | 6 | 56 | 0.0 | 0.0 | 0.00 | 0.00 | 0.00 | 1 | 1014.6 |
| 20260507022251 | 6 | 56 | 0.0 | 0.0 | 0.00 | 0.00 | 0.00 | 1 | 1014.6 |
| 20260507021746 | 6 | 56 | 0.0 | 0.0 | 0.00 | 0.00 | 0.00 | 1 | 1014.5 |
| 20260507021238 | 6 | 56 | 0.0 | 0.0 | 0.00 | 0.00 | 0.00 | 1 | 1014.4 |
| 20260507021000 | 6 | 56 | 0.0 | 0.0 | 0.00 | 0.00 | 0.00 | 1 | 1014.4 |
| 20260507020222 | 6 | 56 | 0.0 | 0.0 | 0.00 | 0.00 | 0.00 | 1 | 1014.4 |
| 20260507015719 | 6 | 56 | 0.0 | 0.0 | 0.00 | 0.00 | 0.00 | 1 | 1014.4 |
| 20260507015429 | 6 | 56 | 0.0 | 0.0 | 0.00 | 0.00 | 0.00 | 1 | 1014.4 |
| 20260507014705 | 6 | 56 | 0.0 | 0.0 | 0.00 | 0.00 | 0.00 | 1 | 1014.3 |
| 20260507014420 | 7 | 56 | 0.0 | 0.0 | 0.00 | 0.00 | 0.00 | 1 | 1014.2 |
| 20260507013655 | 7 | 56 | 0.0 | 0.0 | 0.00 | 0.00 | 0.00 | 1 | 1014.2 |
| 20260507013147 | 7 | 56 | 0.0 | 0.0 | 0.00 | 0.00 | 0.00 | 1 | 1014.2 |
| 20260507012640 | 7 | 56 | 0.0 | 1.6 | 0.00 | 0.00 | 0.00 | 1 | 1014.2 |
| 20260507012136 | 7 | 56 | 0.0 | 1.6 | 0.00 | 0.00 | 0.00 | 1 | 1014.2 |
| 20260507011629 | 7 | 56 | 0.0 | 1.6 | 0.00 | 0.00 | 0.00 | 1 | 1014.2 |
| 20260507011121 | 7 | 56 | 0.0 | 1.6 | 0.00 | 0.00 | 0.00 | 1 | 1014.2 |
| 20260507010616 | 7 | 56 | 0.0 | 0.0 | 0.00 | 0.00 | 0.00 | 1 | 1014.2 |
| 20260507010341 | 7 | 56 | 0.0 | 1.6 | 0.00 | 0.00 | 0.00 | 1 | 1014.2 |
| 20260507005605 | 7 | 56 | 0.0 | 1.6 | 0.00 | 0.00 | 0.00 | 1 | 1014.2 |
| 20260507005058 | 7 | 56 | 0.0 | 0.0 | 0.00 | 0.00 | 0.00 | 1 | 1014.2 |
| 20260507004554 | 8 | 56 | 0.0 | 0.0 | 0.00 | 0.00 | 0.00 | 1 | 1014.1 |
| 20260507004046 | 8 | 56 | 0.0 | 0.0 | 0.00 | 0.00 | 0.00 | 1 | 1014.1 |
| 20260507003541 | 8 | 56 | 0.0 | 0.0 | 0.00 | 0.00 | 0.00 | 1 | 1014.1 |
| 20260507003034 | 8 | 56 | 0.0 | 1.6 | 0.00 | 0.00 | 0.00 | 1 | 1014.1 |
| 20260507002528 | 8 | 56 | 0.0 | 6.4 | 0.00 | 0.00 | 0.00 | 1 | 1014.1 |
| 20260507002023 | 8 | 53 | 0.0 | 6.4 | 0.00 | 0.00 | 0.00 | 1 | 1014.1 |
| 20260507001519 | 8 | 85 | 0.0 | 0.0 | 0.00 | 0.00 | 0.00 | 1 | 1014.0 |
| 20260507001012 | 8 | 28 | 0.0 | 3.2 | 0.00 | 0.00 | 0.00 | 3 | 1014.0 |
| 20260507000501 | 8 | 30 | 0.0 | 3.2 | 0.00 | 0.00 | 0.00 | 7 | 1014.0 |
| 20260507000445 | 8 | 56 | 0.0 | 6.4 | 0.00 | 0.00 | 0.00 | 9 | 1014.1 |
| 20260506235716 | 8 | 133 | 0.0 | 6.4 | 0.00 | 0.00 | 0.00 | 12 | 1014.1 |
| 20260506234943 | 8 | 65 | 1.6 | 8.0 | 0.00 | 0.00 | 0.00 | 13 | 1014.1 |
| 20260506234435 | 8 | 61 | 3.2 | 14.5 | 0.00 | 0.00 | 0.00 | 13 | 1014.1 |
| 20260506233934 | 8 | 80 | 3.2 | 14.5 | 0.00 | 0.00 | 0.00 | 14 | 1014.1 |
| 20260506233424 | 8 | 73 | 3.2 | 11.3 | 0.00 | 0.00 | 0.00 | 13 | 1014.1 |
| 20260506232918 | 8 | 107 | 3.2 | 8.0 | 0.00 | 0.00 | 0.00 | 13 | 1014.1 |
| 20260506232630 | 8 | 138 | 1.6 | 11.3 | 0.00 | 0.00 | 0.00 | 13 | 1014.1 |
| 20260506231907 | 8 | 42 | 1.6 | 11.3 | 0.00 | 0.00 | 0.00 | 13 | 1014.0 |
| 20260506231401 | 8 | 252 | 1.6 | 14.5 | 0.00 | 0.00 | 0.00 | 13 | 1014.0 |
| 20260506230855 | 8 | 38 | 1.6 | 14.5 | 0.00 | 0.00 | 0.00 | 12 | 1014.1 |
| 20260506230353 | 8 | 108 | 3.2 | 16.1 | 0.00 | 0.00 | 0.00 | 10 | 1014.0 |
| 20260506230108 | 8 | 48 | 1.6 | 16.1 | 0.00 | 0.00 | 0.00 | 9 | 1014.0 |
| 20260506225337 | 8 | 90 | 1.6 | 11.3 | 0.00 | 0.00 | 0.00 | 7 | 1014.0 |
| 20260506224832 | 9 | 90 | 1.6 | 9.7 | 0.00 | 0.00 | 0.00 | 3 | 1014.0 |
| 20260506224324 | 9 | 82 | 1.6 | 11.3 | 0.00 | 0.00 | 0.00 | 3 | 1014.0 |
| 20260506223817 | 9 | 8 | 1.6 | 11.3 | 0.00 | 0.00 | 0.00 | 4 | 1013.9 |
| 20260506223312 | 9 | 127 | 3.2 | 9.7 | 0.00 | 0.00 | 0.00 | 4 | 1013.9 |
| 20260506223033 | 9 | 81 | 3.2 | 9.7 | 0.00 | 0.00 | 0.00 | 5 | 1013.8 |
| 20260506222301 | 9 | 96 | 3.2 | 9.7 | 0.00 | 0.00 | 0.00 | 3 | 1013.8 |
| 20260506221757 | 9 | 30 | 1.6 | 8.0 | 0.00 | 0.00 | 0.00 | 2 | 1013.9 |
| 20260506221250 | 9 | 115 | 1.6 | 9.7 | 0.00 | 0.00 | 0.00 | 1 | 1013.8 |
| 20260506220743 | 9 | 118 | 1.6 | 9.7 | 0.00 | 0.00 | 0.00 | 2 | 1013.8 |
| 20260506220236 | 9 | 72 | 1.6 | 8.0 | 0.00 | 0.00 | 0.00 | 2 | 1013.8 |
| 20260506215730 | 10 | 140 | 1.6 | 6.4 | 0.00 | 0.00 | 0.00 | 5 | 1013.7 |
| 20260506215224 | 10 | 96 | 1.6 | 8.0 | 0.00 | 0.00 | 0.00 | 9 | 1013.7 |
| 20260506214941 | 10 | 93 | 1.6 | 8.0 | 0.00 | 0.00 | 0.00 | 11 | 1013.6 |
| 20260506214211 | 10 | 64 | 3.2 | 11.3 | 0.00 | 0.00 | 0.00 | 14 | 1013.7 |
| 20260506213708 | 10 | 34 | 1.6 | 11.3 | 0.00 | 0.00 | 0.00 | 17 | 1013.6 |
| 20260506213427 | 10 | 156 | 1.6 | 9.7 | 0.00 | 0.00 | 0.00 | 18 | 1013.5 |
| 20260506212917 | 10 | 37 | 3.2 | 8.0 | 0.00 | 0.00 | 0.00 | 20 | 1013.5 |
| 20260506212148 | 10 | 45 | 1.6 | 9.7 | 0.00 | 0.00 | 0.00 | 21 | 1013.5 |
| 20260506211640 | 10 | 57 | 1.6 | 12.9 | 0.00 | 0.00 | 0.00 | 26 | 1013.5 |
| 20260506211134 | 11 | 25 | 1.6 | 12.9 | 0.00 | 0.00 | 0.00 | 31 | 1013.4 |
| 20260506210849 | 11 | 106 | 1.6 | 12.9 | 0.00 | 0.00 | 0.00 | 33 | 1013.3 |
| 20260506210352 | 11 | 41 | 1.6 | 12.9 | 0.00 | 0.00 | 0.00 | 36 | 1013.3 |
| 20260506205617 | 11 | 257 | 1.6 | 11.3 | 0.00 | 0.00 | 0.00 | 39 | 1013.2 |
| 20260506205121 | 11 | 271 | 3.2 | 14.5 | 0.00 | 0.00 | 0.00 | 42 | 1013.2 |
| 20260506204834 | 11 | 22 | 1.6 | 14.5 | 0.00 | 0.00 | 0.00 | 46 | 1013.2 |
| 20260506204059 | 11 | 70 | 1.6 | 8.0 | 0.00 | 0.00 | 0.00 | 48 | 1013.2 |
| 20260506203552 | 11 | 265 | 0.0 | 6.4 | 0.00 | 0.00 | 0.00 | 51 | 1013.2 |
| 20260506203049 | 11 | 238 | 0.0 | 6.4 | 0.00 | 0.00 | 0.00 | 55 | 1013.1 |
| 20260506202542 | 11 | 19 | 1.6 | 8.0 | 0.00 | 0.00 | 0.00 | 56 | 1013.1 |
| 20260506202037 | 11 | 223 | 1.6 | 8.0 | 0.00 | 0.00 | 0.00 | 57 | 1013.1 |
| 20260506201805 | 11 | 27 | 1.6 | 11.3 | 0.00 | 0.00 | 0.00 | 57 | 1013.0 |
| 20260506201023 | 11 | 104 | 1.6 | 11.3 | 0.00 | 0.00 | 0.00 | 56 | 1012.9 |
| 20260506200519 | 11 | 358 | 0.0 | 4.8 | 0.00 | 0.00 | 0.00 | 53 | 1012.9 |
| 20260506200239 | 11 | 58 | 0.0 | 4.8 | 0.00 | 0.00 | 0.00 | 54 | 1012.8 |
| 20260506195508 | 11 | 14 | 1.6 | 4.8 | 0.00 | 0.00 | 0.00 | 55 | 1012.8 |
| 20260506195000 | 12 | 158 | 1.6 | 4.8 | 0.00 | 0.00 | 0.00 | 55 | 1012.7 |
| 20260506194453 | 12 | 218 | 0.0 | 4.8 | 0.00 | 0.00 | 0.00 | 57 | 1012.7 |
| 20260506193947 | 12 | 231 | 1.6 | 8.0 | 0.00 | 0.00 | 0.00 | 58 | 1012.6 |
| 20260506193445 | 12 | 32 | 1.6 | 8.0 | 0.00 | 0.00 | 0.00 | 59 | 1012.6 |
| 20260506192938 | 12 | 35 | 0.0 | 4.8 | 0.00 | 0.00 | 0.00 | 59 | 1012.5 |
| 20260506192433 | 12 | 33 | 1.6 | 4.8 | 0.00 | 0.00 | 0.00 | 60 | 1012.4 |
| 20260506191928 | 12 | 31 | 0.0 | 4.8 | 0.00 | 0.00 | 0.00 | 60 | 1012.4 |
| 20260506191429 | 12 | 19 | 0.0 | 8.0 | 0.00 | 0.00 | 0.00 | 61 | 1012.2 |
| 20260506190928 | 12 | 295 | 1.6 | 16.1 | 0.00 | 0.00 | 0.00 | 61 | 1012.1 |
| 20260506190429 | 12 | 169 | 1.6 | 16.1 | 0.00 | 0.00 | 0.00 | 60 | 1012.0 |
| 20260506185928 | 12 | 243 | 1.6 | 11.3 | 0.00 | 0.00 | 0.00 | 60 | 1012.0 |
| 20260506185428 | 12 | 114 | 1.6 | 11.3 | 0.00 | 0.00 | 0.00 | 60 | 1011.9 |
| 20260506184929 | 12 | 109 | 1.6 | 8.0 | 0.00 | 0.00 | 0.00 | 60 | 1011.9 |
| 20260506184425 | 12 | 54 | 1.6 | 8.0 | 0.00 | 0.00 | 0.00 | 60 | 1011.8 |
| 20260506184156 | 13 | 37 | 1.6 | 8.0 | 0.00 | 0.00 | 0.00 | 60 | 1011.8 |
| 20260506183654 | 13 | 260 | 1.6 | 6.4 | 0.00 | 0.00 | 0.00 | 60 | 1011.8 |
| 20260506183144 | 13 | 124 | 1.6 | 11.3 | 0.00 | 0.00 | 0.00 | 60 | 1011.7 |
| 20260506182429 | 13 | 103 | 3.2 | 16.1 | 0.00 | 0.00 | 0.00 | 59 | 1011.6 |
| 20260506181927 | 13 | 188 | 3.2 | 16.1 | 0.00 | 0.00 | 0.00 | 59 | 1011.6 |
| 20260506181426 | 13 | 68 | 1.6 | 14.5 | 0.00 | 0.00 | 0.00 | 59 | 1011.6 |
| 20260506180927 | 13 | 51 | 3.2 | 11.3 | 0.00 | 0.00 | 0.00 | 59 | 1011.5 |
| 20260506180655 | 13 | 127 | 3.2 | 11.3 | 0.00 | 0.00 | 0.00 | 59 | 1011.5 |
| 20260506175925 | 13 | 187 | 1.6 | 9.7 | 0.00 | 0.00 | 0.00 | 60 | 1011.3 |
| 20260506175656 | 13 | 186 | 1.6 | 9.7 | 0.00 | 0.00 | 0.00 | 60 | 1011.4 |
| 20260506174933 | 13 | 96 | 1.6 | 11.3 | 0.00 | 0.00 | 0.00 | 60 | 1011.3 |
| 20260506174423 | 13 | 40 | 1.6 | 11.3 | 0.00 | 0.00 | 0.00 | 60 | 1011.2 |
| 20260506173925 | 13 | 120 | 1.6 | 8.0 | 0.00 | 0.00 | 0.00 | 60 | 1011.1 |
| 20260506173425 | 13 | 324 | 1.6 | 9.7 | 0.00 | 0.00 | 0.00 | 60 | 1011.1 |
| 20260506172927 | 13 | 106 | 3.2 | 11.3 | 0.00 | 0.00 | 0.00 | 60 | 1011.0 |
| 20260506172422 | 13 | 110 | 3.2 | 11.3 | 0.00 | 0.00 | 0.00 | 60 | 1011.0 |
| 20260506171923 | 13 | 241 | 3.2 | 14.5 | 0.00 | 0.00 | 0.00 | 60 | 1011.0 |
| 20260506171422 | 13 | 65 | 3.2 | 14.5 | 0.00 | 0.00 | 0.00 | 60 | 1010.9 |
| 20260506170919 | 13 | 14 | 3.2 | 11.3 | 0.00 | 0.00 | 0.00 | 59 | 1010.9 |
| 20260506170904 | 13 | 317 | 1.6 | 11.3 | 0.00 | 0.00 | 0.00 | 60 | 1010.9 |
| 20260506165920 | 13 | 46 | 3.2 | 12.9 | 0.00 | 0.00 | 0.00 | 60 | 1010.8 |
| 20260506165425 | 13 | 54 | 3.2 | 20.9 | 0.00 | 0.00 | 0.00 | 60 | 1010.7 |
| 20260506165415 | 14 | 243 | 3.2 | 20.9 | 0.00 | 0.00 | 0.00 | 60 | 1010.7 |
| 20260506164421 | 14 | 94 | 3.2 | 11.3 | 0.00 | 0.00 | 0.00 | 60 | 1010.7 |
| 20260506163919 | 14 | 356 | 3.2 | 11.3 | 0.00 | 0.00 | 0.00 | 60 | 1010.8 |
| 20260506163421 | 14 | 27 | 3.2 | 14.5 | 0.00 | 0.00 | 0.00 | 59 | 1010.7 |
| 20260506162920 | 14 | 219 | 3.2 | 14.5 | 0.00 | 0.00 | 0.00 | 59 | 1010.6 |
| 20260506162421 | 14 | 32 | 3.2 | 11.3 | 0.00 | 0.00 | 0.00 | 59 | 1010.6 |
| 20260506161921 | 14 | 82 | 3.2 | 16.1 | 0.00 | 0.00 | 0.00 | 60 | 1010.6 |
| 20260506161657 | 13 | 74 | 3.2 | 16.1 | 0.00 | 0.00 | 0.00 | 60 | 1010.6 |
| 20260506160920 | 13 | 47 | 3.2 | 12.9 | 0.00 | 0.00 | 0.00 | 60 | 1010.6 |
| 20260506160420 | 13 | 311 | 3.2 | 17.7 | 0.00 | 0.00 | 0.00 | 60 | 1010.6 |
| 20260506155924 | 13 | 245 | 3.2 | 19.3 | 0.00 | 0.00 | 0.00 | 59 | 1010.6 |
| 20260506155419 | 13 | 77 | 3.2 | 19.3 | 0.00 | 0.00 | 0.00 | 59 | 1010.7 |
| 20260506154922 | 13 | 106 | 1.6 | 8.0 | 0.00 | 0.00 | 0.00 | 57 | 1010.7 |
| 20260506154420 | 13 | 345 | 1.6 | 8.0 | 0.00 | 0.00 | 0.00 | 56 | 1010.7 |
| 20260506153918 | 13 | 117 | 1.6 | 8.0 | 0.00 | 0.00 | 0.00 | 56 | 1010.7 |
| 20260506153419 | 13 | 111 | 3.2 | 9.7 | 0.00 | 0.00 | 0.00 | 56 | 1010.7 |
| 20260506152916 | 13 | 110 | 3.2 | 9.7 | 0.00 | 0.00 | 0.00 | 56 | 1010.6 |
| 20260506152417 | 14 | 96 | 3.2 | 11.3 | 0.00 | 0.00 | 0.00 | 55 | 1010.6 |
| 20260506151917 | 14 | 37 | 3.2 | 11.3 | 0.00 | 0.00 | 0.00 | 56 | 1010.5 |
| 20260506151644 | 14 | 30 | 3.2 | 9.7 | 0.00 | 0.00 | 0.00 | 58 | 1010.5 |
| 20260506150935 | 14 | 95 | 4.8 | 19.3 | 0.00 | 0.00 | 0.00 | 53 | 1010.5 |
| 20260506150421 | 14 | 57 | 4.8 | 19.3 | 0.00 | 0.00 | 0.00 | 52 | 1010.5 |
| 20260506145918 | 14 | 32 | 3.2 | 14.5 | 0.00 | 0.00 | 0.00 | 52 | 1010.4 |
| 20260506145637 | 14 | 56 | 4.8 | 14.5 | 0.00 | 0.00 | 0.00 | 53 | 1010.5 |
| 20260506144919 | 14 | 136 | 4.8 | 16.1 | 0.00 | 0.00 | 0.00 | 56 | 1010.5 |
| 20260506144642 | 14 | 77 | 3.2 | 16.1 | 0.00 | 0.00 | 0.00 | 56 | 1010.5 |
| 20260506143918 | 14 | 80 | 3.2 | 11.3 | 0.00 | 0.00 | 0.00 | 55 | 1010.4 |
| 20260506143418 | 14 | 124 | 4.8 | 14.5 | 0.00 | 0.00 | 0.00 | 57 | 1010.4 |
| 20260506142919 | 14 | 94 | 4.8 | 14.5 | 0.00 | 0.00 | 0.00 | 56 | 1010.4 |
| 20260506142419 | 14 | 99 | 4.8 | 12.9 | 0.00 | 0.00 | 0.00 | 56 | 1010.4 |
| 20260506141917 | 15 | 100 | 4.8 | 11.3 | 0.00 | 0.00 | 0.00 | 55 | 1010.3 |
| 20260506141418 | 15 | 92 | 4.8 | 12.9 | 0.00 | 0.00 | 0.00 | 54 | 1010.4 |
| 20260506140918 | 15 | 18 | 3.2 | 12.9 | 0.00 | 0.00 | 0.00 | 52 | 1010.4 |
| 20260506140419 | 15 | 39 | 4.8 | 17.7 | 0.00 | 0.00 | 0.00 | 56 | 1010.4 |
| 20260506135913 | 15 | 51 | 4.8 | 17.7 | 0.00 | 0.00 | 0.00 | 51 | 1010.3 |
| 20260506135415 | 15 | 50 | 4.8 | 12.9 | 0.00 | 0.00 | 0.00 | 48 | 1010.3 |
| 20260506134917 | 15 | 139 | 4.8 | 16.1 | 0.00 | 0.00 | 0.00 | 49 | 1010.3 |
| 20260506134513 | 16 | 53 | 4.8 | 17.7 | 0.00 | 0.00 | 0.00 | 49 | 1010.3 |
| 20260506133410 | 16 | 127 | 6.4 | 14.5 | 0.00 | 0.00 | 0.00 | 48 | 1010.2 |
| 20260506132911 | 16 | 207 | 6.4 | 19.3 | 0.00 | 0.00 | 0.00 | 46 | 1010.3 |
| 20260506132633 | 16 | 109 | 6.4 | 19.3 | 0.00 | 0.00 | 0.00 | 46 | 1010.2 |
| 20260506131910 | 16 | 149 | 4.8 | 17.7 | 0.00 | 0.00 | 0.00 | 45 | 1010.2 |
| 20260506131410 | 16 | 333 | 4.8 | 19.3 | 0.00 | 0.00 | 0.00 | 44 | 1010.2 |
| 20260506130904 | 16 | 74 | 6.4 | 19.3 | 0.00 | 0.00 | 0.00 | 46 | 1010.1 |
| 20260506130403 | 15 | 100 | 6.4 | 17.7 | 0.00 | 0.00 | 0.00 | 43 | 1010.1 |
| 20260506125901 | 15 | 100 | 6.4 | 17.7 | 0.00 | 0.00 | 0.00 | 43 | 1010.2 |
| 20260506125402 | 15 | 30 | 6.4 | 19.3 | 0.00 | 0.00 | 0.00 | 44 | 1010.1 |
| 20260506124905 | 15 | 85 | 6.4 | 25.7 | 0.00 | 0.00 | 0.00 | 43 | 1010.2 |
| 20260506124403 | 15 | 120 | 6.4 | 25.7 | 0.00 | 0.00 | 0.00 | 44 | 1010.1 |
| 20260506123903 | 15 | 97 | 6.4 | 19.3 | 0.00 | 0.00 | 0.00 | 46 | 1010.1 |
| 20260506123402 | 15 | 8 | 6.4 | 17.7 | 0.00 | 0.00 | 0.00 | 47 | 1010.1 |
| 20260506122905 | 15 | 115 | 6.4 | 17.7 | 0.00 | 0.00 | 0.00 | 48 | 1010.0 |
| 20260506122414 | 15 | 27 | 6.4 | 17.7 | 0.00 | 0.00 | 0.00 | 48 | 1010.1 |
| 20260506121900 | 15 | 112 | 6.4 | 17.7 | 0.00 | 0.00 | 0.00 | 49 | 1010.1 |
| 20260506121400 | 15 | 101 | 6.4 | 19.3 | 0.00 | 0.00 | 0.00 | 50 | 1010.0 |
| 20260506120902 | 15 | 27 | 8.0 | 19.3 | 0.00 | 0.00 | 0.00 | 48 | 1010.0 |
| 20260506120654 | 15 | 89 | 8.0 | 20.9 | 0.00 | 0.00 | 0.00 | 48 | 1010.0 |
| 20260506120128 | 15 | 24 | 8.0 | 24.1 | 0.00 | 0.00 | 0.00 | 46 | 1010.0 |
| 20260506115406 | 15 | 195 | 8.0 | 24.1 | 0.00 | 0.00 | 0.00 | 46 | 1010.0 |
| 20260506114900 | 15 | 54 | 6.4 | 20.9 | 0.00 | 0.00 | 0.00 | 46 | 1010.1 |
| 20260506114359 | 15 | 66 | 4.8 | 14.5 | 0.00 | 0.00 | 0.00 | 48 | 1009.9 |
| 20260506113857 | 15 | 52 | 4.8 | 22.5 | 0.00 | 0.00 | 0.00 | 48 | 1010.0 |
| 20260506113356 | 15 | 17 | 8.0 | 22.5 | 0.00 | 0.00 | 0.00 | 47 | 1010.1 |
| 20260506113121 | 15 | 13 | 6.4 | 20.9 | 0.00 | 0.00 | 0.00 | 48 | 1010.1 |
| 20260506112357 | 15 | 65 | 4.8 | 17.7 | 0.00 | 0.00 | 0.00 | 47 | 1010.1 |
| 20260506111857 | 15 | 94 | 6.4 | 17.7 | 0.00 | 0.00 | 0.00 | 49 | 1010.0 |
| 20260506111352 | 15 | 49 | 6.4 | 17.7 | 0.00 | 0.00 | 0.00 | 50 | 1009.9 |
| 20260506110908 | 15 | 58 | 6.4 | 17.7 | 0.00 | 0.00 | 0.00 | 53 | 1009.9 |
| 20260506110354 | 15 | 52 | 6.4 | 17.7 | 0.00 | 0.00 | 0.00 | 52 | 1009.9 |
| 20260506105853 | 15 | 34 | 6.4 | 17.7 | 0.00 | 0.00 | 0.00 | 52 | 1009.9 |
| 20260506105352 | 15 | 46 | 4.8 | 17.7 | 0.00 | 0.00 | 0.00 | 55 | 1010.0 |
| 20260506104855 | 15 | 124 | 4.8 | 16.1 | 0.00 | 0.00 | 0.00 | 57 | 1010.0 |
| 20260506104847 | 15 | 25 | 4.8 | 16.1 | 0.00 | 0.00 | 0.00 | 59 | 1010.0 |
| 20260506104120 | 15 | 31 | 3.2 | 16.1 | 0.00 | 0.00 | 0.00 | 59 | 1009.9 |
| 20260506103355 | 15 | 114 | 3.2 | 12.9 | 0.00 | 0.00 | 0.00 | 59 | 1009.9 |
| 20260506102853 | 14 | 352 | 3.2 | 16.1 | 0.00 | 0.00 | 0.00 | 58 | 1009.9 |
| 20260506101840 | 14 | 125 | 3.2 | 11.3 | 0.00 | 0.00 | 0.00 | 57 | 1010.0 |
| 20260506101335 | 14 | 115 | 3.2 | 12.9 | 0.00 | 0.00 | 0.00 | 58 | 1009.9 |
| 20260506100830 | 14 | 32 | 4.8 | 14.5 | 0.00 | 0.00 | 0.00 | 59 | 1009.9 |
| 20260506100323 | 14 | 45 | 3.2 | 14.5 | 0.00 | 0.00 | 0.00 | 59 | 1009.9 |
| 20260506095817 | 14 | 68 | 3.2 | 16.1 | 0.00 | 0.00 | 0.00 | 58 | 1009.9 |
| 20260506095314 | 14 | 115 | 4.8 | 16.1 | 0.00 | 0.00 | 0.00 | 58 | 1009.9 |
| 20260506094805 | 14 | 54 | 4.8 | 16.1 | 0.00 | 0.00 | 0.00 | 60 | 1009.9 |
| 20260506094522 | 14 | 44 | 4.8 | 16.1 | 0.00 | 0.00 | 0.00 | 58 | 1009.9 |
| 20260506093754 | 14 | 77 | 3.2 | 17.7 | 0.00 | 0.00 | 0.00 | 57 | 1009.9 |
| 20260506093521 | 14 | 91 | 3.2 | 17.7 | 0.00 | 0.00 | 0.00 | 56 | 1009.8 |
| 20260506092741 | 14 | 153 | 3.2 | 14.5 | 0.00 | 0.00 | 0.00 | 53 | 1009.9 |
| 20260506092236 | 14 | 83 | 3.2 | 11.3 | 0.00 | 0.00 | 0.00 | 53 | 1009.9 |
| 20260506091953 | 14 | 36 | 3.2 | 12.9 | 0.00 | 0.00 | 0.00 | 52 | 1009.8 |
| 20260506091225 | 14 | 217 | 3.2 | 12.9 | 0.00 | 0.00 | 0.00 | 53 | 1009.8 |
| 20260506090716 | 14 | 78 | 3.2 | 12.9 | 0.00 | 0.00 | 0.00 | 53 | 1009.8 |
| 20260506090211 | 14 | 302 | 3.2 | 12.9 | 0.00 | 0.00 | 0.00 | 55 | 1009.7 |
| 20260506085705 | 14 | 76 | 3.2 | 16.1 | 0.00 | 0.00 | 0.00 | 53 | 1009.7 |
| 20260506085159 | 14 | 110 | 3.2 | 16.1 | 0.00 | 0.00 | 0.00 | 55 | 1009.7 |
| 20260506084920 | 14 | 38 | 3.2 | 12.9 | 0.00 | 0.00 | 0.00 | 49 | 1009.6 |
| 20260506084414 | 13 | 92 | 4.8 | 14.5 | 0.00 | 0.00 | 0.00 | 50 | 1009.6 |
| 20260506083640 | 13 | 240 | 4.8 | 16.1 | 0.00 | 0.00 | 0.00 | 50 | 1009.6 |
| 20260506083134 | 13 | 164 | 3.2 | 16.1 | 0.00 | 0.00 | 0.00 | 46 | 1009.5 |
| 20260506082630 | 13 | 55 | 3.2 | 11.3 | 0.00 | 0.00 | 0.00 | 44 | 1009.5 |
| 20260506082132 | 13 | 112 | 3.2 | 14.5 | 0.00 | 0.00 | 0.00 | 43 | 1009.6 |
| 20260506081846 | 13 | 275 | 4.8 | 14.5 | 0.00 | 0.00 | 0.00 | 43 | 1009.6 |
| 20260506081131 | 13 | 25 | 3.2 | 12.9 | 0.00 | 0.00 | 0.00 | 42 | 1009.5 |
| 20260506080900 | 13 | 101 | 3.2 | 12.9 | 0.00 | 0.00 | 0.00 | 41 | 1009.6 |
| 20260506080143 | 13 | 348 | 3.2 | 11.3 | 0.00 | 0.00 | 0.00 | 38 | 1009.5 |